�ϑ��N����,2023/9/27,,,
�ϑ���,�����@���G,,,
�ϑ��n�_,A13 ,,,
���x�v�ԍ�,9,,,
,,,,
����,�C��,����,����,���l
9:30:00,-999,-999,,
9:31:00,-999,-999,,
9:32:00,-999,-999,,
9:33:00,-999,-999,,
9:34:00,-999,-999,,
9:35:00,-999,-999,,
9:36:00,-999,-999,,
9:37:00,-999,-999,,
9:38:00,-999,-999,,
9:39:00,-999,-999,,
9:40:00,-999,-999,,
9:41:00,-999,-999,,
9:42:00,-999,-999,,
9:43:00,-999,-999,,
9:44:00,-999,-999,,
9:45:00,-999,-999,,
9:46:00,-999,-999,,
9:47:00,-999,-999,,
9:48:00,-999,-999,,
9:49:00,-999,-999,,
9:50:00,-999,-999,,
9:51:00,-999,-999,,
9:52:00,-999,-999,,
9:53:00,-999,-999,,
9:54:00,-999,-999,,
9:55:00,-999,-999,,
9:56:00,32.9 ,7,,
9:57:00,33.1 ,7,,
9:58:00,32.3 ,7,,
9:59:00,31.9 ,2,,
10:00:00,31.1 ,8,,
10:01:00,31.0 ,8,,
10:02:00,31.1 ,7,,���z�o��
10:03:00,32.8 ,7,,���z�o��
10:04:00,32.5 ,7,,���z�o��
10:05:00,32.0 ,7,,���z�o��
10:06:00,31.9 ,7,,���z�o��
10:07:00,31.9 ,7,,
10:08:00,32.0 ,8,,
10:09:00,32.5 ,7,,
10:10:00,32.9 ,2,,
10:11:00,33.1 ,3,,
10:12:00,33.3 ,3,,���z�o��
10:13:00,33.3 ,3,,���z�o��
10:14:00,33.8 ,1,,���z�o��
10:15:00,33.9 ,8,,
10:16:00,33.5 ,8,,
10:17:00,32.7 ,8,,
10:18:00,31.8 ,8,,����
10:19:00,31.3 ,7,,
10:20:00,32.1 ,1,,
10:21:00,33.3 ,8,,
10:22:00,33.0 ,8,,
10:23:00,32.0 ,8,,
10:24:00,31.9 ,1,,
10:25:00,31.9 ,5,,������
10:26:00,32.2 ,7,,
10:27:00,32.2 ,7,,
10:28:00,32.2 ,7,,
10:29:00,32.0 ,7,,
10:30:00,32.2 ,6,,
10:31:00,33.0 ,6,,
10:32:00,32.6 ,6,,���A
10:33:00,32.0 ,6,,���A
10:34:00,31.7 ,6,,���A
10:35:00,31.4 ,6,,
10:36:00,31.2 ,4,,
10:37:00,31.5 ,1,,���z�o��
10:38:00,31.3 ,2,,
10:39:00,31.7 ,6,,
10:40:00,31.1 ,6,,
10:41:00,31.6 ,6,,
10:42:00,32.0 ,7,,
10:43:00,32.1 ,7,,
10:44:00,32.9 ,8,,���z�o��
10:45:00,33.0 ,7,,���z�o��
10:46:00,33.0 ,7,,���z�o��
10:47:00,32.9 ,7,,���z�o��
10:48:00,32.1 ,7,,
10:49:00,32.1 ,8,,
10:50:00,31.9 ,8,,
10:51:00,31.8 ,8,,
10:52:00,31.9 ,8,,
10:53:00,31.2 ,8,,
10:54:00,31.8 ,8,,
10:55:00,32.5 ,8,,
10:56:00,32.6 ,7,,
10:57:00,32.0 ,8,,
10:58:00,31.8 ,8,,
10:59:00,31.6 ,8,,
11:00:00,31.7 ,8,,
11:01:00,31.8 ,8,,
11:02:00,32.0 ,8,,���z�o��
11:03:00,31.6 ,8,,���A
11:04:00,32.0 ,8,,���A
11:05:00,32.1 ,8,,���z�o��
11:06:00,32.2 ,7,,���A
11:07:00,31.9 ,7,,���A
11:08:00,31.9 ,7,,���A
11:09:00,31.4 ,7,,���A
11:10:00,31.2 ,6,,���A
11:11:00,31.5 ,6,,���A
11:12:00,31.6 ,6,,���A
11:13:00,31.2 ,7,,���A
11:14:00,31.1 ,7,,
11:15:00,31.9 ,7,,
11:16:00,32.0 ,7,,
11:17:00,31.4 ,7,,���A
11:18:00,31.0 ,2,,������
11:19:00,30.8 ,2,,���A
11:20:00,31.1 ,2,,
11:21:00,31.5 ,1,,
11:22:00,31.1 ,3,,
11:23:00,31.5 ,7,,���z�o��
11:24:00,31.9 ,7,,���z�o��
11:25:00,33.0 ,7,,���z�o��
11:26:00,32.8 ,8,,���z�o��
11:27:00,33.0 ,8,,���z�o��
11:28:00,32.9 ,6,,���z�o��
11:29:00,33.0 ,7,,
11:30:00,32.9 ,8,,
